Regional Weather Roundup
Issued by NWS

Home | Current Version | Previous Version | Text Only | Print | Product List | Glossary On
Versions: 1 2 3 4 5 6 7 8 9 10 11 12 13 14 15 16 17 18 19 20 21 22 23 24 25 26 27 28 29 30 31 32 33 34 35 36 37 38 39 40 41 42 43 44 45 46 47 48 49 50
000
ASHW40 PHFO 281512
RWRHI

WEATHER ROUNDUP FOR HAWAII
NATIONAL WEATHER SERVICE HONOLULU HI
500 AM HST WED JUN 28 2017

THIS IS AN AUTOMATED REPORT THAT HAS NOT BEEN QUALITY CONTROLLED.

NOTE..."FAIR" INDICATES FEW OR NO CLOUDS BELOW 12,000 FEET WITH NO
SIGNIFICANT WEATHER AND/OR OBSTRUCTIONS TO VISIBILITY.

* - THESE SITES REPORT LIMITED FIELDS

HIZ001>004-281600-
KAUAI-NIIHAU-

CITY           SKY/WX    TMP DP  RH WIND       PRES   REMARKS
LIHUE APT      MOCLDY    78  67  68 NE15      30.11R
PORT ALLEN*    NOT AVBL
POIPU*           N/A     77 N/A N/A NE9G20      N/A
PRINCEVILLE*     N/A     75 N/A N/A SE6         N/A
KOKOLE POINT*  NOT AVBL
MOLOAA DAIRY*    N/A     75  66  73 E3G12       N/A
WAIMEA HTS*    NOT AVBL
PUU OPAE*      NOT AVBL
PUU LUA*       NOT AVBL
MAKAHA RIDGE*  NOT AVBL
$$

HIZ005>011-281600-
OAHU-

CITY           SKY/WX    TMP DP  RH WIND       PRES   REMARKS
HONOLULU       MOCLDY    77  66  68 NE12      30.06S
KALAELOA       PTCLDY    77  67  71 NE5       30.08R
KANEOHE MCB    PTCLDY    79  70  74 NE10G17   30.06
WHEELER FIELD  CLOUDY    75  66  74 NE3       30.08R
BELLOWS*       NOT AVBL
KAHUKU*        NOT AVBL
WHEELER*       NOT AVBL
WAIANAE HARBOR NOT AVBL
DILLINGHAM*      N/A     90  81  74 W2          N/A  HX 108
KAHUKU TRN*      N/A     84  77  79 W10G21      N/A  HX  94
KAWAILOA*        N/A     72  66  83 E12G18      N/A
KII*             N/A     79  70  73 E18G26      N/A
MAKUA RANGE*     N/A     72  61  68 SW6G13      N/A
OAHU FOREST NW NOT AVBL
SCHOFIELD BRK*   N/A     73  66  78 MISG        N/A
SCHOFIELD S*   NOT AVBL
WAIANAE VLY*   NOT AVBL
KUAOKALA*      NOT AVBL
HONOULIUULI*   NOT AVBL
MOKUOLOE IS*   NOT AVBL
PALEHUA*       NOT AVBL
WAIAWA PHB*    NOT AVBL
$$

HIZ012>013-281600-
MOLOKAI-

CITY           SKY/WX    TMP DP  RH WIND       PRES   REMARKS
MOLOKAI AIRPT  MOCLDY    77  68  73 NE14G25   30.07R
KALAUPAPA      NOT AVBL
MAKAPULAPAI*   NOT AVBL
MOLOKAI 1*     NOT AVBL
PUU ALII*      NOT AVBL
$$

HIZ016-281600-
KAHOOLAWE-

CITY           SKY/WX    TMP DP  RH WIND       PRES   REMARKS
KAHOOLAWE*     NOT AVBL
HAKIOAWA*      NOT AVBL
HONOKANAIA*    NOT AVBL
KANELOA*         N/A     75  63  64 NE14G37     N/A
KEALIALALO*    NOT AVBL
LUA MAKIKA*    NOT AVBL
$$

HIZ014>015-281600-
LANAI-

CITY           SKY/WX    TMP DP  RH WIND       PRES   REMARKS
LANAI CITY     FAIR      69  62  78 E7        30.11R
LANAI 1*       NOT AVBL
$$

HIZ017>028-281600-
MAUI-

CITY           SKY/WX    TMP DP  RH WIND       PRES   REMARKS
KAHULUI        CLEAR     77  68  73 NE18      30.07R
KAPALUA-W MAUI NOT AVBL
HANA AIRPORT   MOCLDY    75  70  83 E10       30.13R
HANA*            N/A     73 N/A N/A S1          N/A
HALEAKALA SUMM   N/A     43  23  45 NE23G36     N/A
MAALAEA BAY*   NOT AVBL
HALEAKALA*     NOT AVBL
KAUPO GAP*     NOT AVBL
KULA 1*          N/A    N/A N/A N/A E5          N/A
$$

HIZ023>026-281600-
BIG ISLAND OF HAWAII COAST AND LOWER SLOPES-

CITY           SKY/WX    TMP DP  RH WIND       PRES   REMARKS
KAILUA KONA    CLOUDY    86  66  51 E7        30.00R
HILO           CLOUDY    73  66  78 SW3       30.08S
HONOKAA*         N/A     70 N/A N/A VRB1        N/A
KAWAIHAE MWT*    N/A     77 N/A N/A NE3G9       N/A
KAWAIHAE*      NOT AVBL
SOUTH POINT*     N/A     68 N/A N/A N12         N/A
UPOLU AIRPORT* NOT AVBL
KAMUELA*         N/A     64  57  77 NE26      30.12S
HAKALAU*         N/A     39  36  87 W3          N/A
KALOKO-HONOKO* NOT AVBL
PALI 2*          N/A     64  55  72 S22G35      N/A
KEALAKOMO*       N/A     77  63  61 VRB25G33    N/A
KAUPULEHU*     NOT AVBL
KAPAPALA*        N/A     57  56  98 N5G10       N/A
LOWER KAHUKU*  NOT AVBL
PUHE CS*       NOT AVBL
PUHO CS*       NOT AVBL
PTA KEAMUKU*   NOT AVBL
WAIKOLOA*      NOT AVBL
$$

HIZ027>028-281600-
BIG ISLAND OF HAWAII INTERIOR AND SUMMMITS-

CITY           SKY/WX    TMP DP  RH WIND       PRES   REMARKS
BRADSHAW FIELD PTCLDY    48  29  47 SE7       30.36R
MK VISITOR CEN   N/A     46  -4  12 N3          N/A
MAUNA KEA*       N/A     36  -6  17 N5          N/A
MAUNA LOA*       N/A     43  -8  11 MISG        N/A
MAUNA LOA 1*   NOT AVBL
PTA KIPUKA*      N/A    N/A N/A N/A E13G22      N/A
PTA RANGE 17*    N/A     73  34  23 E12G23      N/A
PTA WEST*        N/A     54  37  54 SE3G10      N/A
NENE CABIN*    NOT AVBL
AHUMOA*        NOT AVBL
PTA PORTABLE*  NOT AVBL
PUU MALI*        N/A     59 N/A N/A E17G26      N/A
$$

HIC003-281600-
NORTHWEST ISLANDS-

CITY           SKY/WX    TMP DP  RH WIND       PRES   REMARKS
MIDWAY ISLAND  MOCLDY    75  72  88 E10       30.13F
MIDWAY NOS*    NOT AVBL
FRENCH FRIGATE NOT AVBL
$$

PHZ110>124-180-281600-
BUOY REPORTS

STATION/POSITION TIME  TEMP    WIND        PRES    WAVE   SWELL
                       AIR SEA DIR/SP/G            HT/PER HT/DIR
                 (UTC) (F)     (DEG/KT/KT) (MB)    (FT/S) (FT/D)
BUOY 51001       1450   79 81  100/ 14/ 17 1019.9R   5/ 9   5/ 80
BUOY 51101       1450   79 80  100/ 16/ 17 1020.2R   5/10   5/ 70
BUOY 51100       NOT AVBL
BUOY 51002       1450   79 79   70/ 17/ 21 1015.4R   7/ 8   3/100
BUOY 51003       1450   80 80   50/ 16/ 17 1016.3R   7/ 8   5/100
BUOY 51004       1350      78   50/ 19/ 23 1015.2    7/ 7   3/ 70
BARBERS PT BUOY  NOT AVBL
WAIMEA BAY BUOY  1402      78                N/A     5/10   2/ 30
KAILUA BAY BUOY  1434      80                N/A     7/11   3/ 60
LANAI BUOY       NOT AVBL
BARBERS PT 2     NOT AVBL
PAUWELA MAUI     1439      78                N/A     6/11   2/ 40
HILO             1457      79                N/A     6/11   3/ 40
KANEOHE BAY BUOY 1455      79                N/A     6/11   2/ 60
HANALEI KAUAI    1452      80                N/A     5/10   2/ 50
KAHULUI HARBOR   1448   78 80   40/ 14/ 18 1018.4R
HONOLULU HARBOR  1448   78 80   10/  3/  7 1018.8R
KILO NALU        NOT AVBL
HILO HARBOR      1448   75 78  250/  8/  9 1018.2S
MOKUOLOE         1436   78 82   60/ 12/ 15 1018.8R
NAWILIWILI       1448   78      50/  9/ 14 1018.9R
WHOTS BUOY       NOT AVBL
BUOY 51028       NOT AVBL
$$

......................KEY........................................
  SKY/WX - SKY CONDITIONS/PRESENT WEATHER
  TMP    - TEMPERATURE IN FAHRENHEIT
  DWPT   - DEWPOINT IN FAHRENHEIT
  RH     - RELATIVE HUMIDITY IN PERCENT
  WIND   - DIRECTION AND SPEED /MPH FOR ISLANDS...KTS FOR BUOYS/
  PRES   - MEAN SEA LEVEL PRESSURE IN INCHES OF HG
  VSB    - VISIBILITY IN MILES
  HX     - HEAT INDEX
  WCI    - WIND CHILL INDEX
  VRB    - VARIABLE WIND DIRECTION
  N/A    - NOT AVAILABLE




USA.gov is the U.S. government's official web portal to all federal, state and local government web resources and services.